Brunswick, GA

9:55 PM EDT on May 22, 2017 (GMT -0400)
Glynco Jetport

Weather History for KBQK - October, 2012

Change the Weather History Date:

Saturday, October 13, 2012

  Actual Average Record
Temperature  
Mean Temperature 73 °F -  
Max Temperature 82 °F 80 °F 89 °F (1975)
Min Temperature 64 °F 59 °F 46 °F (2000)
Cooling Degree Days 8    
Growing Degree Days 23 (Base 50)    
Moisture  
Dew Point 67 °F    
Average Humidity 81    
Maximum Humidity 100    
Minimum Humidity 54    
Precipitation  
Precipitation 0.00 in - - ()
Sea Level Pressure  
Sea Level Pressure 30.25 in    
Wind  
Wind Speed 5 mph (NE)    
Max Wind Speed 20 mph    
Max Gust Speed 25 mph    
Visibility 9 miles    
Events      
Averages and records for this station are not official NWS values.
T = Trace of Precipitation, MM = Missing Value Source: NWS Daily Summary

Daily Weather History Graph

Daily Weather History Graph

Search for Another Location

Airport or City:

Trip Planner

Search our weather history database for the weather conditions in past years. The results will help you decide how hot, cold, wet, or windy it might be!

Date:

Astronomy

Oct. 13, 2012 Rise Set
Actual Time 7:27 AM EDT 6:55 PM EDT
Civil Twilight 7:03 AM EDT 7:20 PM EDT
Nautical Twilight 6:35 AM EDT 7:48 PM EDT
Astronomical Twilight 6:07 AM EDT 8:16 PM EDT
Moon 5:22 AM EDT (10/13) 5:34 PM EDT (10/13)
Length of Visible Light 12h 16m
Length of Day
11h 28m
Waning Crescent, 5% of the Moon is Illuminated
Oct 13
Waning Crescent
Oct 15
New
Oct 21
First Quarter
Oct 29
Full
Nov 6
Last Quarter

Hourly Weather History & Observations

Time (EDT) Temp. Heat Index Dew Point Humidity Pressure Visibility Wind Dir Wind Speed Gust Speed Precip Events Conditions
12:15 AM 68.0 °F - 66.2 °F 94% 30.23 in 10.0 mi Calm Calm - N/A   Clear
12:35 AM 66.2 °F - 64.4 °F 94% 30.23 in 7.0 mi Calm Calm - N/A   Clear
12:55 AM 66.2 °F - 64.4 °F 94% 30.22 in 7.0 mi Calm Calm - N/A   Scattered Clouds
1:15 AM 66.2 °F - 64.4 °F 94% 30.22 in 10.0 mi Calm Calm - N/A   Clear
1:35 AM 68.0 °F - 64.4 °F 88% 30.21 in 10.0 mi Calm Calm - N/A   Clear
1:55 AM 68.0 °F - 64.4 °F 88% 30.21 in 10.0 mi Calm Calm - N/A   Clear
2:15 AM 66.2 °F - 64.4 °F 94% 30.21 in 5.0 mi Calm Calm - N/A   Clear
2:35 AM 66.2 °F - 64.4 °F 94% 30.21 in 3.0 mi Calm Calm - N/A   Scattered Clouds
2:55 AM 66.2 °F - 64.4 °F 94% 30.21 in 7.0 mi Calm Calm - N/A   Clear
3:15 AM 66.2 °F - 64.4 °F 94% 30.21 in 7.0 mi Calm Calm - N/A   Clear
3:35 AM 64.4 °F - 64.4 °F 100% 30.21 in 3.0 mi Calm Calm - N/A   Clear
3:55 AM 64.4 °F - 64.4 °F 100% 30.20 in 4.0 mi Calm Calm - N/A   Clear
4:15 AM 64.4 °F - 64.4 °F 100% 30.21 in 2.0 mi Calm Calm - N/A   Clear
4:35 AM 64.4 °F - 64.4 °F 100% 30.21 in 0.5 mi Calm Calm - N/A   Unknown
4:55 AM 64.4 °F - 64.4 °F 100% 30.21 in 0.8 mi Calm Calm - N/A   Unknown
5:35 AM 64.4 °F - 64.4 °F 100% 30.23 in 1.0 mi Calm Calm - N/A   Mostly Cloudy
5:55 AM 64.4 °F - 64.4 °F 100% 30.23 in 1.2 mi Calm Calm - N/A   Unknown
6:15 AM 64.4 °F - 62.6 °F 94% 30.24 in 7.0 mi Calm Calm - N/A   Scattered Clouds
6:35 AM 64.4 °F - 64.4 °F 100% 30.25 in 10.0 mi Calm Calm - N/A   Clear
6:55 AM 64.4 °F - 64.4 °F 100% 30.25 in 10.0 mi Calm Calm - N/A   Clear
7:15 AM 66.2 °F - 64.4 °F 94% 30.26 in 10.0 mi Calm Calm - N/A   Clear
7:35 AM 66.2 °F - 64.4 °F 94% 30.26 in 7.0 mi Calm Calm - N/A   Clear
7:55 AM 66.2 °F - 64.4 °F 94% 30.26 in 10.0 mi Calm Calm - N/A   Clear
8:15 AM 68.0 °F - 68.0 °F 100% 30.27 in 10.0 mi Calm Calm - N/A   Clear
8:55 AM 71.6 °F - 68.0 °F 88% 30.28 in 10.0 mi Calm Calm - N/A   Scattered Clouds
9:15 AM 75.2 °F - 69.8 °F 83% 30.28 in 10.0 mi NE 5.8 mph - N/A   Scattered Clouds
9:35 AM 78.8 °F - 68.0 °F 69% 30.28 in 10.0 mi NE 9.2 mph - N/A   Mostly Cloudy
9:55 AM 80.6 °F 82.3 °F 64.4 °F 58% 30.29 in 10.0 mi NE 12.7 mph - N/A   Scattered Clouds
10:15 AM 80.6 °F 82.3 °F 64.4 °F 58% 30.29 in 10.0 mi NE 15.0 mph - N/A   Scattered Clouds
10:35 AM 80.6 °F 82.3 °F 64.4 °F 58% 30.29 in 10.0 mi NE 13.8 mph - N/A   Scattered Clouds
10:55 AM 80.6 °F 82.3 °F 64.4 °F 58% 30.29 in 10.0 mi ENE 13.8 mph 20.7 mph N/A   Scattered Clouds
11:15 AM 82.4 °F 83.9 °F 64.4 °F 54% 30.29 in 10.0 mi ENE 16.1 mph 20.7 mph N/A   Scattered Clouds
11:35 AM 80.6 °F 82.3 °F 64.4 °F 58% 30.30 in 10.0 mi ENE 10.4 mph - N/A   Mostly Cloudy
11:55 AM 82.4 °F 84.6 °F 66.2 °F 58% 30.30 in 10.0 mi NE 13.8 mph 18.4 mph N/A   Mostly Cloudy
12:35 PM 82.4 °F 86.3 °F 69.8 °F 66% 30.29 in 10.0 mi NNE 13.8 mph 19.6 mph N/A   Mostly Cloudy
12:55 PM 80.6 °F 83.9 °F 69.8 °F 70% 30.29 in 10.0 mi ENE 10.4 mph 18.4 mph N/A   Mostly Cloudy
1:15 PM 80.6 °F 83.9 °F 69.8 °F 70% 30.28 in 10.0 mi NE 13.8 mph 20.7 mph N/A   Mostly Cloudy
1:35 PM 80.6 °F 83.9 °F 69.8 °F 70% 30.27 in 10.0 mi NE 11.5 mph 19.6 mph N/A   Mostly Cloudy
1:55 PM 78.8 °F - 69.8 °F 74% 30.26 in 10.0 mi NE 11.5 mph 17.3 mph N/A   Mostly Cloudy
2:15 PM 80.6 °F 83.9 °F 69.8 °F 70% 30.26 in 10.0 mi ENE 15.0 mph 21.9 mph N/A   Overcast
2:35 PM 82.4 °F 86.3 °F 69.8 °F 66% 30.24 in 10.0 mi ENE 19.6 mph 24.2 mph N/A   Overcast
2:55 PM 80.6 °F 83.9 °F 69.8 °F 70% 30.24 in 10.0 mi NE 16.1 mph 21.9 mph N/A   Overcast
3:15 PM 82.4 °F 86.3 °F 69.8 °F 66% 30.24 in 10.0 mi NE 11.5 mph 19.6 mph N/A   Overcast
3:35 PM 80.6 °F 83.9 °F 69.8 °F 70% 30.23 in 10.0 mi ENE 17.3 mph 21.9 mph N/A   Overcast
3:55 PM 80.6 °F 84.6 °F 71.6 °F 74% 30.23 in 10.0 mi NE 13.8 mph 21.9 mph N/A   Mostly Cloudy
4:15 PM 80.6 °F 84.6 °F 71.6 °F 74% 30.23 in 10.0 mi ENE 16.1 mph 24.2 mph N/A   Mostly Cloudy
4:35 PM 78.8 °F - 69.8 °F 74% 30.23 in 10.0 mi NE 16.1 mph 25.3 mph N/A   Overcast
4:55 PM 78.8 °F - 69.8 °F 74% 30.23 in 10.0 mi NE 12.7 mph 23.0 mph N/A   Mostly Cloudy
5:15 PM 78.8 °F - 69.8 °F 74% 30.23 in 10.0 mi NE 12.7 mph 20.7 mph N/A   Overcast
5:35 PM 78.8 °F - 69.8 °F 74% 30.23 in 10.0 mi NE 13.8 mph 20.7 mph N/A   Mostly Cloudy
5:55 PM 78.8 °F - 69.8 °F 74% 30.23 in 10.0 mi NE 13.8 mph 19.6 mph N/A   Mostly Cloudy
6:15 PM 77.0 °F - 69.8 °F 78% 30.23 in 10.0 mi NE 12.7 mph 18.4 mph N/A   Overcast
6:35 PM 77.0 °F - 69.8 °F 78% 30.23 in 10.0 mi NE 13.8 mph 20.7 mph N/A   Mostly Cloudy
6:55 PM 77.0 °F - 69.8 °F 78% 30.24 in 10.0 mi NE 12.7 mph 19.6 mph N/A   Overcast
7:15 PM 77.0 °F - 69.8 °F 78% 30.24 in 10.0 mi NE 15.0 mph 19.6 mph N/A   Overcast
7:35 PM 77.0 °F - 68.0 °F 74% 30.24 in 10.0 mi NE 13.8 mph 24.2 mph N/A   Overcast
7:55 PM 77.0 °F - 69.8 °F 78% 30.24 in 10.0 mi ENE 12.7 mph 20.7 mph N/A   Mostly Cloudy
8:35 PM 77.0 °F - 69.8 °F 78% 30.25 in 10.0 mi ENE 16.1 mph 23.0 mph N/A   Mostly Cloudy
9:35 PM 77.0 °F - 69.8 °F 78% 30.25 in 10.0 mi ENE 15.0 mph 23.0 mph N/A   Overcast
9:55 PM 75.2 °F - 69.8 °F 83% 30.25 in 10.0 mi NE 13.8 mph 20.7 mph N/A   Overcast
10:15 PM 75.2 °F - 69.8 °F 83% 30.25 in 10.0 mi NE 13.8 mph 20.7 mph N/A   Overcast
10:55 PM 75.2 °F - 71.6 °F 89% 30.25 in 10.0 mi NE 12.7 mph - N/A   Overcast
11:15 PM 75.2 °F - 68.0 °F 78% 30.24 in 10.0 mi NE 12.7 mph 17.3 mph N/A   Overcast
11:35 PM 77.0 °F - 68.0 °F 74% 30.24 in 10.0 mi NE 9.2 mph - N/A   Overcast
11:55 PM 77.0 °F - 69.8 °F 78% 30.24 in 10.0 mi NE 11.5 mph 17.3 mph N/A   Overcast